Regional Weather Roundup
Issued by NWS

Home | Current Version | Previous Version | Text Only | Print | Product List | Glossary Off
Versions: 1 2 3 4 5 6 7 8 9 10 11 12 13 14 15 16 17 18 19 20 21 22 23 24 25 26 27

000
ASUS45 KBOI 050110
RWRID

IDAHO REGIONAL WEATHER ROUNDUP
NATIONAL WEATHER SERVICE BOISE ID
700 PM MDT WED MAY 04 2016

NOTE: "FAIR" INDICATES FEW OR NO CLOUDS BELOW 12000 FEET
WITH NO SIGNIFICANT WEATHER AND/OR OBSTRUCTIONS TO VISIBILITY

IDZ012-014-050200-
SOUTHWEST IDAHO


CITY           SKY/WX    TMP DP  RH WIND       PRES   REMARKS
BOISE          CLOUDY    80  33  18 W6        29.81F
CALDWELL       CLOUDY    75  50  41 NW6       29.79F
MOUNTAIN HOME  CLOUDY    79  38  23 SW9       29.82F
$$

IDZ016-017-050200-
SOUTHCENTRAL IDAHO


CITY           SKY/WX    TMP DP  RH WIND       PRES   REMARKS
BURLEY         PTSUNNY   73  34  23 SE9       29.93F
JEROME         CLOUDY    73  38  27 E10       29.92F
TWIN FALLS     CLOUDY    71  42  35 SE8       29.92F
$$

IDZ019>023-050200-
SOUTHEAST IDAHO


CITY           SKY/WX    TMP DP  RH WIND       PRES   REMARKS
IDAHO FALLS    CLOUDY    73  30  20 SW12      30.01F
POCATELLO      CLOUDY    72  31  22 S16       30.00F
REXBURG        CLOUDY    71  31  22 SW8       30.01S
$$

IDZ006-010-011-018-031-032-050200-
CENTRAL IDAHO MOUNTAINS


CITY           SKY/WX    TMP DP  RH WIND       PRES   REMARKS
MCCALL         LGT RAIN  63  36  36 E13G26    29.95R
HAILEY         MOSUNNY   66  39  37 SE6       30.01F
STANLEY          N/A     64  26  23 SE9G21    30.05F
SALMON         MOSUNNY   73  36  25 CALM      29.87F
CHALLIS        CLOUDY    71  23  16 S6        29.96F
$$

IDZ002-004-006-007-026-050200-
NORTHERN IDAHO


CITY           SKY/WX    TMP DP  RH WIND       PRES   REMARKS
LEWISTON       PTSUNNY   78  50  37 W8        29.78F
LOWELL           N/A     68  54  60 CALM      29.78F
COEUR D`ALENE  CLOUDY    75  46  35 NW6       29.82F
MULLAN PASS    CLOUDY    60  37  42 CALM      30.01F
$$




USA.gov is the U.S. government's official web portal to all federal, state and local government web resources and services.